Retour au catalogue

NOAA 16 DEB

ActifPO
NORAD 41205·DEBRIS·🇺🇸 United States

Lancé Sep 21, 2000 depuis Vandenberg Space Force Base

Loading…

Prochains Passages (prochaines 24 heures)

TLE

VieillissantSource: Space-Track

Époque: Sep 6, 2026, 13:28 UTC

1 41205U 00055DJ  26249.56126007  .00018027  00000-0  20254-2 0  9995
2 41205  98.9451 110.5178 0009925 128.4810 231.7294 14.86768607559158

Suivez NOAA 16 DEB en temps réel avec AllMySat

Download on the App Store